Tracking 27122 objects as of 24-Mar-2023
HD Live streaming from Space Station
objects crossing your sky now

LANDSAT 4

Track LANDSAT 4 now!
10-day predictions
LANDSAT 4 is classified as:


NORAD ID: 13367
Int'l Code: 1982-072A
Perigee: 495.6 km
Apogee: 509.5 km
Inclination: 98.3 °
Period: 94.5 minutes
Semi major axis: 6873 km
RCS: 7.754 m2 (large)
Launch date: July 16, 1982
Source: United States (US)
Launch site: AIR FORCE WESTERN TEST RANGE (AFWTR)
Your satellite tracking list
Your tracking list is empty




NASA's NSSDC Master Catalog

Two Line Element Set (TLE):
1 13367U 82072A   23082.57775711  .00011227  00000-0  47340-3 0  9998
2 13367  98.2577  96.9353 0010149 211.4699 148.5929 15.23467879629661
Source of the keplerian elements: AFSPC